Regional Weather Roundup
Issued by NWS Grand Forks, ND

Home | Current Version | Previous Version | Text Only | Print | Product List | Glossary Off
Versions: 1 2 3 4 5 6 7 8 9 10 11 12 13 14 15 16 17 18 19 20 21 22 23 24 25 26 27 28 29 30 31 32 33 34 35 36 37 38 39 40 41 42 43 44 45 46 47 48 49 50

000
ASUS43 KFGF 220031
RWRFGF
PRAIRIE TO PINES  WEATHER ROUNDUP
NATIONAL WEATHER SERVICE EASTERN NORTH DAKOTA/GRAND FORKS ND
700 PM CDT WED JUN 21 2017

 **SATELLITE DATA USED TO AUGMENT SKY COVER AT AUTOMATED STATIONS**
 *****  WEATHER ACROSS EASTERN NORTH DAKOTA  *****

CITY           SKY/WX    TMP DP  RH WIND       PRES   REMARKS
GRAND FORKS    FAIR      83  58  42 NW17G26   29.59R
6HR MIN TEMP:  72; 6HR MAX TEMP:  86;

GRAND FRKS AFB FAIR      80  59  49 NW20G25   29.61R
DEVILS LAKE    FAIR      76  48  37 W23       29.68S
6HR MIN TEMP:  74; 6HR MAX TEMP:  81;

FARGO          FAIR      80  66  62 S15       29.58S
WAHPETON ARPT  FAIR      77  61  57 NE6       29.61S
$$

 ***** WEATHER ACROSS CENTRAL AND WESTERN NORTH DAKOTA  *****

CITY           SKY/WX    TMP DP  RH WIND       PRES   REMARKS
BISMARCK       FAIR      82  45  27 NW17G24   29.75R
6HR MIN TEMP:  82; 6HR MAX TEMP:  91;

MINOT          FAIR      77  34  21 NW17G25   29.73S
6HR MIN TEMP:  76; 6HR MAX TEMP:  80;

JAMESTOWN      FAIR      79  51  37 NW22G32   29.67R
6HR MIN TEMP:  79; 6HR MAX TEMP:  87;

MINOT AFB      FAIR      76  35  22 NW20G26   29.72S
GARRISON         N/A     76  37  24 NW21      29.74F
WILLISTON      FAIR      79  34  19 NW10      29.78F
6HR MIN TEMP:  76; 6HR MAX TEMP:  82;

DICKINSON      FAIR      77  35  21 N13       29.77F
6HR MIN TEMP:  77; 6HR MAX TEMP:  84;

HETTINGER      FAIR      83  39  21 NW20      29.79F
6HR MIN TEMP:  82; 6HR MAX TEMP:  89;

$$

 *****  OTHER AIRPORT OBSERVATIONS IN OUR AREA  *****

CITY           SKY/WX    TMP DP  RH WIND       PRES   REMARKS
WALHALLA       NOT AVBL
GRAFTON AIRPOR FAIR      77  55  47 W21G28    29.62R
VALLEY CITY AR FAIR      79  55  44 NW17G32   29.67R
CANDO          NOT AVBL
CAVALIER APRT  FAIR      75  57  53 W17G30    29.60R
GWINNER        CLOUDY    81  66  61 W8        29.62S
SHEYENNE NWR     N/A     81  71  71 CALM      29.95S
ROLLA            N/A     72  41  33 W17G24    29.70R
 ***** THE ABOVE OBSERVATIONS ARE NON NWS ARE NOT QUALITY
       CONTROLLED AND MAY MIS-REPORT RAIN FOR SNOW...
$$

  *****  WEATHER ACROSS NORTHERN MINNESOTA  *****

CITY           SKY/WX    TMP DP  RH WIND       PRES   REMARKS
FLAG ISLAND    PTSUNNY   61  55  82 E8        29.62F
WARROAD        FAIR      66  63  88 E8        29.61F
ROSEAU         FAIR      70  63  78 SE13      29.60F
HALLOCK        FAIR      77  57  50 NW18G31   29.57R
THF RVR FALLS  PTSUNNY   72  64  78 E5        29.61F
BAUDETTE       CLOUDY    63  59  87 E8        29.65F
6HR MIN TEMP:  61; 6HR MAX TEMP:  71; 6HR PCP:  0.11;

WASKISH        PTSUNNY   66  57  72 E7        29.64F
CROOKSTON      FAIR      81  63  54 NW14      29.59R
STEPHEN NDAWN    N/A     79  57  47 NW18        N/A
GREENBUSH NDAW   N/A     73  63  68 SE6         N/A
$$
  *****  WEATHER ACROSS CENTRAL AND WEST MINNESOTA  *****

CITY           SKY/WX    TMP DP  RH WIND       PRES   REMARKS
FOSSTON        LGT RAIN  70  61  73 SW3       29.62R
BEMIDJI        LGT RAIN  73  56  56 SE7       29.64F
PARK RAPIDS    FAIR      78  54  43 S10       29.66F
6HR MIN TEMP:  75; 6HR MAX TEMP:  82;

ELBOW LAKE     FAIR      80  63  56 S16       29.62F
6HR MIN TEMP:  77; 6HR MAX TEMP:  82;

WADENA         LGT RAIN  73  61  64 S8        29.67R
DETROIT LAKES  FAIR      79  61  53 S13G18    29.63F
MOORHEAD       FAIR      75  63  64 S9        29.61R
FERGUS FALLS   FAIR      64  64 100 E12       29.62R
MORRIS MN      FAIR      82  61  47 S14       29.63F
STAPLES        FAIR      75  55  50 S12       29.67F
$$
  *****  WEATHER ELSEWHERE ACROSS MINNESOTA  *****

CITY           SKY/WX    TMP DP  RH WIND       PRES   REMARKS
DULUTH         PTSUNNY   64  47  53 SE14      29.76F
6HR MIN TEMP:  64; 6HR MAX TEMP:  72;

INTRNTL FALLS  CLOUDY    64  55  72 SE8       29.70F
6HR MIN TEMP:  62; 6HR MAX TEMP:  72; 6HR PCP:  0.02;

ELY            PTSUNNY   64  52  63 SE6       29.75S
CLOQUET        FAIR      64  45  48 E9        29.75F
WHEATON        FAIR      82  63  51 S6        29.62F
BRAINERD       FAIR      75  56  51 S9        29.70F
6HR MIN TEMP:  74; 6HR MAX TEMP:  79;

HIBBING        PTSUNNY   65  57  75 SE8       29.72F
6HR MIN TEMP:  62; 6HR MAX TEMP:  73; 6HR PCP:  0.01;

ALEXANDRIA     FAIR      80  61  52 S13       29.68F
6HR MIN TEMP:  77; 6HR MAX TEMP:  81;

SAINT CLOUD    FAIR      80  60  50 S13       29.71F
6HR MIN TEMP:  77; 6HR MAX TEMP:  82;

MINNEAPOLIS    FAIR      79  59  50 S15       29.74F
6HR MIN TEMP:  77; 6HR MAX TEMP:  81;

$$

  *****  WEATHER ACROSS SOUTH DAKOTA  *****

CITY           SKY/WX    TMP DP  RH WIND       PRES   REMARKS
SIOUX FALLS    FAIR      86  71  60 S6        29.67F HX  91
6HR MIN TEMP:  76; 6HR MAX TEMP:  87;

BROOKINGS      FAIR      83  68  60 S8        29.70F
WATERTOWN      FAIR      83  66  56 S12       29.67F
6HR MIN TEMP:  79; 6HR MAX TEMP:  85;

HURON          FAIR      86  67  52 S10       29.64F
6HR MIN TEMP:  79; 6HR MAX TEMP:  87;

SISSETON         N/A     84  64  50 SW14      29.61F
ABERDEEN       PTSUNNY   76  68  76 NE5       29.62F
6HR MIN TEMP:  77; 6HR MAX TEMP:  91; 6HR PCP:  0.04;

MITCHELL       FAIR      88  66  48 CALM      29.65F HX  90
PIERRE         FAIR      92  59  33 N7        29.65S HX  91
6HR MIN TEMP:  82; 6HR MAX TEMP:  93;

MOBRIDGE       FAIR      85  56  37 N20       29.66S
RAPID CITY     FAIR      89  50  26 N12G21    29.77F
6HR MIN TEMP:  87; 6HR MAX TEMP:  92;

$$

  *****  SOME WEATHER IN NEARBY STATES *****

CITY           SKY/WX    TMP DP  RH WIND       PRES   REMARKS
GLASGOW MT     FAIR      76  36  23 NW5       29.76F
6HR MIN TEMP:  72; 6HR MAX TEMP:  78;

GREAT FALLS MT FAIR      77  24  14 W25G35    29.83F
6HR MIN TEMP:  73; 6HR MAX TEMP:  80;

CHEYENNE WY    FAIR      89  34  14 NW12      29.98F
6HR MIN TEMP:  82; 6HR MAX TEMP:  92; 6HR PCP: TRACE;

SCOTTSBLUFF NE FAIR      97  41  14 N6        29.79F HX  92
6HR MIN TEMP:  91; 6HR MAX TEMP:  98;

OMAHA NE       FAIR      95  64  35 S20G26    29.66F HX  97
6HR MIN TEMP:  87; 6HR MAX TEMP:  97;

DES MOINES IA  FAIR      90  62  39 S16G24    29.74S HX  90
6HR MIN TEMP:  76; 6HR MAX TEMP:  93;

DAVENPORT IA   CLOUDY    74  68  81 N3        29.90R
6HR MIN TEMP:  66; 6HR MAX TEMP:  77; 6HR PCP:  0.20;

CHICAGO IL     PTSUNNY   76  54  46 E12       29.89R
6HR MIN TEMP:  75; 6HR MAX TEMP:  80;

EAU CLAIRE WI  FAIR      76  55  48 S10       29.79F
6HR MIN TEMP:  74; 6HR MAX TEMP:  78;

LA CROSSE WI   FAIR      77  55  46 SE15      29.82F
6HR MIN TEMP:  75; 6HR MAX TEMP:  80;

$$

  *****  SOME NATIONAL WEATHER *****

CITY           SKY/WX    TMP DP  RH WIND       PRES   REMARKS
LA GUARDIA NY  FAIR      83  56  39 W9        29.86S
6HR MIN TEMP:  80; 6HR MAX TEMP:  87;

RALEIGH NC     MOCLDY    80  70  71 W5        30.06R
6HR MIN TEMP:  80; 6HR MAX TEMP:  85;

ATLANTA GA     LGT RAIN  72  69  90 CALM      30.10R
6HR MIN TEMP:  72; 6HR MAX TEMP:  79; 6HR PCP: TRACE;

NEW ORLEANS LA PTSUNNY   82  75  79 SE18G28   29.69R
6HR MIN TEMP:  79; 6HR MAX TEMP:  83; 6HR PCP:  0.80;

OKLAHOMA CITY  FAIR      89  50  26 SE15      29.83F
6HR MIN TEMP:  89; 6HR MAX TEMP:  94;

ALBUQUERQUE NM FAIR      99  29   8 NW9       29.93F HX  93
6HR MIN TEMP:  89; 6HR MAX TEMP: 102;

SALT LAKE CITY FAIR      97  47  18 N14       29.86F HX  93
6HR MIN TEMP:  92; 6HR MAX TEMP:  99;

LOS ANGELES CA FAIR      72  61  68 W13       29.71F
6HR MIN TEMP:  67; 6HR MAX TEMP:  73;

BOISE ID       FAIR



USA.gov is the U.S. government's official web portal to all federal, state and local government web resources and services.